Location: *
(51.4660°N, 0.3360°W)
Time: 10:43:27
(UTC+00:00)

Daily predictions for brighter satellites

Satellite Brightness Start Highest point End
(mag) Time Altitude Azimuth Time Altitude Azimuth Time Altitude Azimuth
H-2A R/B 3.1 18:34:58 10° ESE 18:38:58 25° ENE 18:43:02 10° N
Cosmos 2151 Rocket 3.5 18:37:07 10° S 18:41:31 77° E 18:45:56 10° NNE
CZ-2D R/B 3.2 18:41:29 10° SSE 18:45:16 88° E 18:49:07 10° NNW
Cosmos 1939 Rocket 2.7 18:42:34 10° SSE 18:46:26 79° ENE 18:50:19 10° N
SAR-Lupe-2 4.4 18:47:48 10° NE 18:50:58 29° E 18:54:07 10° SSE
Cosmos 2074 Rocket 4.2 18:46:59 10° NNW 18:53:15 78° W 18:59:27 10° S
Cosmos 1544 3.2 18:51:30 10° S 18:54:59 50° E 18:58:31 10° NNE
Cosmos 2227 Rocket 3.5 18:51:32 10° SE 18:55:11 18° E 18:58:51 10° ENE
Cosmos 2219 4.0 18:51:29 10° SSE 18:56:22 30° ESE 19:01:16 10° NE
Cosmos 2341 Rocket 4.3 18:51:24 10° N 18:57:27 48° ENE 19:03:25 10° SE
Meteor 2-9 Rocket 4.3 18:53:45 10° S 18:59:31 87° ESE 19:05:09 10° NNE
ARGOS 3.8 18:54:46 10° SE 18:59:36 36° ENE 19:04:29 10° N
Cosmos 1842 4.3 18:56:49 10° NNW 19:00:40 50° W 19:04:30 10° S
CZ-2C R/B 4.3 18:56:44 10° NNE 19:00:47 33° E 19:04:47 10° SSE
Cosmos 389 Rocket 3.0 18:57:43 10° N 19:00:57 37° ENE 19:04:09 10° SE
Cosmos 2297 Rocket 3.3 19:01:30 10° SSE 19:05:45 22° ESE 19:10:01 10° NE
GEOS 3 Rocket 4.0 19:03:03 10° SSE 19:08:08 64° SW 19:13:15 10° NW
Meteor 1-12 Rocket 4.2 19:02:37 10° S 19:08:20 83° E 19:14:01 10° NNE
Cosmos 1975 4.4 19:05:54 10° SW 19:09:39 39° WNW 19:13:28 10° N
Ariane Rocket 3.5 19:05:49 10° S 19:10:51 65° WSW 19:15:56 10° NNW
NOSS 3-4 (A) 4.0 19:05:16 10° NW 19:12:11 77° SW 19:19:45 10° SE
NOSS 3-4 (C) 4.0 19:05:22 10° NW 19:12:17 77° SW 19:19:51 10° SE
Cosmos 1437 Rocket 4.0 19:09:40 10° NNE 19:12:44 22° ENE 19:14:27 17° ESE
Cosmos 614 Rocket 4.0 19:07:54 10° NNW 19:13:08 65° ENE 19:18:18 10° SE
FREGAT/IRIS 2.4 19:12:40 10° SSE 19:15:28 88° WSW 19:18:19 10° NNW
Cosmos 2218 Rocket 4.5 19:09:43 10° N 19:15:45 41° ENE 19:21:37 10° SE
Cosmos 405 Rocket 3.6 19:12:58 10° SSE 19:16:05 26° E 19:19:13 10° NE
Cosmos 2154 Rocket 4.1 19:11:12 10° N 19:17:26 84° W 19:23:38 10° S
EO 1 Delta rocket 4.3 19:12:33 10° SSE 19:19:07 77° ENE 19:24:22 10° N
Cosmos 407 Rocket 3.4 19:14:34 10° NNW 19:19:45 75° ENE 19:24:52 10° SSE
HJ-1C 4.2 19:17:14 10° S 19:20:31 53° W 19:23:52 10° NNW
Cosmos 2056 Rocket 4.2 19:15:46 10° SSE 19:20:34 34° ESE 19:25:23 10° NE
Okean 1 Rocket 3.0 19:16:33 10° S 19:20:54 86° E 19:25:17 10° N
NOSS 3-3 (A) 4.3 19:17:30 10° SW 19:23:35 75° NW 19:30:31 10° NE
NOSS 3-3 (C) 4.3 19:17:36 10° SW 19:23:41 76° NW 19:30:37 10° NE
GENESIS II 4.4 19:19:56 10° NW 19:24:03 63° NE 19:26:43 20° ESE
CZ-4C R/B 4.0 19:19:29 10° WNW 19:24:38 30° N 19:30:39 10° NE
Resurs 1-3 4.2 19:21:40 16° SE 19:24:44 38° ENE 19:28:50 10° N
Cosmos 2333 Rocket 3.4 19:20:08 10° NW 19:25:31 44° WSW 19:30:54 10° S
Meteor 1-24 Rocket 4.4 19:21:02 10° N 19:26:21 37° ENE 19:30:18 17° SE
Meteor 2-17 Rocket 4.5 19:20:25 10° N 19:26:27 61° ENE 19:32:26 10° SSE
Meteor 1-4 Rocket 2.6 19:22:59 10° N 19:26:31 54° ENE 19:29:05 17° SSE
In-Cosmos 22 4.1 19:23:49 10° N 19:29:10 70° ENE 19:34:36 10° SSE
SL-8 Rocket 4.1 19:23:27 10° N 19:29:35 57° ENE 19:35:38 10° SSE
RESURS DK-1 4.0 19:27:28 10° N 19:30:41 21° NE 19:32:24 17° ENE
Resurs 01 Rocket 2.3 19:29:23 20° ESE 19:31:50 36° ENE 19:35:55 10° N
Cosmos 1624 Rocket 4.3 19:27:34 10° S 19:32:24 41° ESE 19:37:16 10° NE
SL-08 RB Rocket 4.2 19:29:16 18° SE 19:32:26 43° ENE 19:36:53 10° N
Cosmos 1441 Rocket 3.6 19:28:42 10° SSW 19:32:28 64° WNW 19:36:14 10° N
Cosmos 2237 Rocket 2.2 19:27:18 10° NNW 19:33:03 86° WSW 19:38:28 11° SSE
GP-B 4.1 19:28:49 10° N 19:33:07 50° W 19:37:24 10° SSW
ADEOS Rocket 3.8 19:26:36 10° NNE 19:33:34 46° E 19:40:54 10° SSE
CZ-2C R/B 3.6 19:29:58 18° SE 19:33:37 43° ENE 19:38:51 10° N
USA 234 3.7 19:29:24 10° ENE 19:35:49 59° N 19:42:15 10° W
SL-8 R/B 3.8 19:32:24 10° WSW 19:37:06 58° S 19:39:51 24° E
Cosmos 1674 3.3 19:35:27 10° N 19:38:54 35° ENE 19:39:57 29° ESE
Cosmos 1954 Rocket 4.1 19:36:20 10° NNW 19:41:33 61° ENE 19:44:49 22° SE
Cosmos 1805 4.2 19:42:10 26° E 19:42:10 26° E 19:45:25 10° NNE
Cosmos 1980 3.9 19:36:46 10° NNW 19:42:25 71° WSW 19:47:47 11° SSE
Cosmos 1140 Rocket 3.4 19:38:56 10° NNW 19:44:10 81° ENE 19:47:57 19° SSE
SPOT 3 Rocket 3.7 19:42:19 10° SSE 19:47:29 78° WSW 19:52:39 10° NNW
Spot 2 Rocket 4.2 19:45:59 25° ESE 19:48:00 35° ENE 19:52:33 10° N
USA 186 2.7 19:44:59 10° S 19:48:19 53° W 19:51:42 10° NNW
Meteor 2-5 Rocket 3.8 19:43:02 10° N 19:48:51 70° ENE 19:53:38 16° SSE
Cosmos 1892 Rocket 3.6 19:47:57 10° NNW 19:52:26 80° W 19:56:34 12° S
Cosmos 1707 4.1 19:50:29 10° NNW 19:54:09 39° W 19:57:49 10° SSW
ATLAS 2AS CENTAUR R/B 4.2 19:48:25 10° NW 19:55:14 37° WSW 20:01:36 10° S
ASTEX 1 3.8 19:50:37 10° N 19:55:29 66° W 20:00:19 10° SSW
Cosmos 1461 4.0 19:54:51 10° WSW 19:58:40 43° NW 20:02:28 10° NNE
KORONAS-FOTON 3.8 19:58:28 10° N 20:02:12 55° ENE 20:02:51 47° ESE
Okean 1-7 Rocket 4.0 19:58:03 10° NNW 20:02:27 63° W 20:06:45 11° S
Cosmos 1371 Rocket 3.9 19:58:09 10° SSW 20:03:28 81° ESE 20:08:52 10° NNE
SL-16 R/B 2.2 19:58:06 10° NNW 20:03:48 71° ENE 20:06:31 32° SE
SJ-6B 4.0 20:03:01 10° S 20:06:57 44° W 20:10:54 10° NNW
Cosmos 2219 Rocket 4.4 20:03:32 10° NW 20:07:47 23° WSW 20:12:01 10° SSW
ERBS 2.1 20:04:30 10° WNW 20:07:55 88° NE 20:08:14 71° ESE
Cosmos 676 Rocket 4.1 20:08:42 10° NNW 20:13:59 74° WSW 20:16:52 27° SSE
SL-14 R/B 4.2 20:10:28 10° N 20:13:46 33° ENE 20:13:46 33° ENE
ISS -1.2 20:11:54 10° SSW 20:12:15 12° SSW 20:12:15 12° SSW
Cosmos 1452 Rocket 4.2 20:15:46 34° E 20:15:46 34° E 20:19:45 10° NE
H-2A R/B 2.5 20:13:51 14° S 20:18:03 58° W 20:23:03 10° NNW
CZ-2C R/B 3.6 20:13:33 10° NNE 20:17:56 31° E 20:17:56 31° E
SPOT 5 4.2 20:18:58 24° ENE 20:19:13 24° ENE 20:23:14 10° N
Cosmos 2082 3.8 20:15:59 10° S 20:21:28 49° ESE 20:26:57 10° NE
Cosmos 1766 3.1 20:25:16 71° SSE 20:25:36 79° E 20:29:33 10° NNE
Transit 2A Rocket 4.4 20:26:00 10° NW 20:30:31 75° NE 20:30:56 68° E
Cosmos 1626 3.3 20:30:46 10° N 20:33:10 31° NNE 20:33:10 31° NNE
MetOp-B 4.0 20:33:25 49° SE 20:34:51 75° ENE 20:40:14 10° NNW
Cosmos 1544 Rocket 3.7 20:32:52 21° SSW 20:35:49 72° WNW 20:40:17 10° N
Cosmos 1455 Rocket 3.6 20:32:01 10° SSW 20:36:24 59° WNW 20:40:50 10° N
Cosmos 2227 Rocket 2.1 20:32:47 10° SSW 20:38:27 90° WSW 20:44:11 10° NNE
ARGOS 4.2 20:35:20 13° SSW 20:39:47 43° W 20:44:57 10° NNW
Cosmos 2219 3.8 20:34:31 10° SW 20:40:12 59° NW 20:45:55 10° NNE
Cosmos 2084 Rocket 4.1 20:41:09 10° SW 20:44:14 44° SSW 20:44:14 44° SSW
Cosmos 1850 Rocket 3.8 20:41:09 10° NNW 20:46:22 87° ENE 20:47:06 67° SSE
USA 245 4.3 20:45:55 52° SE 20:47:24 72° ENE 20:53:04 10° N
Cosmos 1437 Rocket 4.0 20:45:36 10° NNW 20:49:07 36° W 20:49:52 32° WSW
Cosmos 2297 Rocket 2.3 20:43:34 10° SW 20:49:14 75° WNW 20:54:56 10° NNE
Terra 3.1 20:49:58 28° NE 20:49:58 28° NE 20:53:25 10° N
Cosmos 1626 Rocket 4.1 20:48:41 10° NNW 20:52:54 54° W 20:53:35 48° SW
Nadezhda 3 Rocket 3.9 20:57:56 60° SE 20:58:46 67° E 21:04:57 10° NNE
Meteor 1-21 Rocket 4.3 20:52:59 10° N 20:58:51 64° ENE 20:59:18 62° E
Cosmos 1825 Rocket 4.2 20:55:36 10° N 20:58:50 45° NNE 20:58:50 45° NNE
IGS 5A 4.4 21:05:41 40° NNE 21:05:41 40° NNE 21:08:34 10° N
Cosmos 1943 3.4 21:00:51 10° NNW 21:06:28 53° NE 21:06:39 53° ENE
Resurs 01 Rocket 3.2 21:06:58 26° SW 21:08:22 31° W 21:12:21 10° NNW
Cosmos 1420 Rocket 4.0 21:06:39 41° SW 21:08:33 79° WNW 21:13:55 10° NNE
RESURS DK-1 3.1 21:05:02 10° NW 21:08:17 51° WNW 21:08:17 51° WNW
Cosmos 1758 Rocket 4.2 21:05:14 10° N 21:08:29 50° N 21:08:29 50° N
Cosmos 1605 Rocket 4.4 21:04:22 10° N 21:10:33 47° ENE 21:10:33 47° ENE
CZ-2C R/B 4.4 21:11:03 23° SW 21:13:34 36° W 21:18:40 10° NNW
Cosmos 1821 Rocket 3.9 21:07:23 10° NNW 21:13:36 83° W 21:14:38 64° S
CZ-4C R/B 3.9 21:09:10 10° NW 21:15:00 34° NNE 21:18:31 23° ENE
Cosmos 1741 Rocket 4.3 21:10:39 10° NNW 21:15:55 60° WSW 21:16:17 58° SW
SPOT 1/Viking Rocket 3.5 21:17:27 80° N 21:17:27 80° N 21:22:22 10° NNW
DMSP B5D2-2 4.4 21:12:24 10° N 21:17:40 65° WNW 21:19:11 45° SW
USA 234 3.6 21:16:03 39° ENE 21:18:26 60° N 21:24:51 10° WNW
Cosmos 1535 Rocket 4.4 21:12:30 10° N 21:18:56 76° E 21:19:20 73° ESE
ADEOS Rocket 4.2 21:12:12 10° N 21:19:06 51° WNW 21:26:27 10° SW
ERS-1 Rocket 3.1 21:20:39 73° N 21:20:39 73° N 21:25:12 10° NNW
Spot 2 Rocket 4.4 21:26:10 37° WSW 21:26:55 40° W 21:31:40 10° NNW
Cosmos 1603 3.9 21:37:29 10° NNW 21:42:35 66° WNW 21:42:35 66° WNW
SL-16 R/B 3.9 21:42:59 10° NW 21:47:25 24° WSW 21:48:25 23° WSW
SPOT 5 3.9 21:58:12 44° NW 21:58:12 44° NW 22:01:52 10° NNW
CZ-2C R/B 3.4 21:53:36 10° N 21:58:59 51° WNW 21:59:26 50° W
Cosmos 2227 Rocket 4.3 22:18:44 10° W 22:23:19 24° NW 22:27:55 10° NNE
Terra 3.6 22:28:51 29° NW 22:28:51 29° NW 22:31:29 10° NNW
Cosmos 2297 Rocket 4.5 22:30:00 10° W 22:34:17 21° NW 22:38:34 10° NNE
Cosmos 2263 Rocket 3.7 22:50:05 30° NNE 22:50:05 30° NNE 22:52:54 10° NNE
Cosmos 1833 Rocket 4.4 22:54:09 10° NNW 22:58:16 25° NNE 22:58:16 25° NNE
USA 234 3.9 23:03:24 48° WNW 23:03:24 48° WNW 23:07:55 10° WNW
CZ-4C R/B 3.1 22:57:48 10° NW 23:03:40 63° N 23:03:40 63° N
ATLAS CENTAUR R/B 4.4 23:28:43 14° NNE 23:28:43 14° NNE 23:29:25 10° NE
SJ 16-02 4.3 23:29:25 10° NNE 23:30:12 12° NNE 23:30:12 12° NNE
Mayak 1.8 23:30:20 10° N 23:30:54 13° N 23:30:54 13° N
